STARLINK-1130

decayed
NORAD ID: 44932 Int'l Des: 2020-001 Owner: SPXS Country: US Constellation: starlink
LEOCIRCULAR

关于 STARLINK-1130

正在加载描述...

高度历史

Altitude vs Time

uPlot chart will show altitude changes over time

两行轨道根数

1 44932U 20001U 25201.41009700 .14655795 12573-4 24213-3 0 9995
2 44932 53.0225 196.8709 0004882 264.2908 267.1656 16.47864835307638
Epoch: Jul 20, 2025 • Age: 1376 hours

当前状态

Position data unavailable
发射日期 Jan 7, 2020
运行时间 5.6 years
衰减日期 Jul 20, 2025
类型 internet

技术详情

分类 Payload
质量 260.00 kg
干质量 248.00 kg
总质量 260.00 kg
长度 0.20 m
直径 2.80 m
跨度 9.00 m
形状 Box + pan
制造商 SPXS
平台类型 Starlink
阶段状态 Unknown Transfer Status
所有者/国家 SPXS/US

大型星座

Loading constellations...